Change the Weather History Date:

Saturday, March 16, 2013

  Actual Average Record
Temperature  
Mean Temperature 34 °F -  
Max Temperature 39 °F 46 °F 75 °F (1990)
Min Temperature 28 °F 26 °F 9 °F (1932)
Degree Days  
Heating Degree Days 32    
Moisture  
Dew Point 12 °F    
Average Humidity 42    
Maximum Humidity 59    
Minimum Humidity 28    
Precipitation  
Precipitation 0.00 in - - ()
Sea Level Pressure  
Sea Level Pressure 29.82 in    
Wind  
Wind Speed 8 mph (NW)    
Max Wind Speed 12 mph    
Max Gust Speed 22 mph    
Visibility 10 miles    
Events      
Averages and records for this station are not official NWS values.
T = Trace of Precipitation, MM = Missing Value Source: NWS Daily Summary

Daily Weather History Graph

Daily Weather History Graph

Search for Another Location

Airport or City:

Trip Planner

Search our weather history database for the weather conditions in past years. The results will help you decide how hot, cold, wet, or windy it might be!

Date:

Astronomy

Mar. 16, 2013 Rise Set
Actual Time 6:54 AM EDT 6:52 PM EDT
Civil Twilight 6:26 AM EDT 7:20 PM EDT
Nautical Twilight 5:53 AM EDT 7:53 PM EDT
Astronomical Twilight 5:20 AM EDT 8:26 PM EDT
Moon 9:15 AM EDT (3/16) No Moon Set
Length of Visible Light 12h 54m
Length of Day
11h 57m
Waxing Crescent, 23% of the Moon is Illuminated
Mar 16
Waxing Crescent
Mar 19
First Quarter
Mar 27
Full
Apr 3
Last Quarter
Apr 10
New

Hourly Weather History & Observations

Time (EDT) Temp. Windchill Dew Point Humidity Pressure Visibility Wind Dir Wind Speed Gust Speed Precip Events Conditions
12:54 AM 33.1 °F 26.1 °F 19.9 °F 59% 29.70 in 10.0 mi NW 8.1 mph 21.9 mph N/A   Clear
1:54 AM 32.0 °F 23.6 °F 17.1 °F 54% 29.73 in 10.0 mi NW 10.4 mph - N/A   Overcast
2:54 AM 32.0 °F 23.0 °F 17.1 °F 54% 29.75 in 10.0 mi NW 11.5 mph 20.7 mph N/A   Clear
3:54 AM 30.9 °F 23.5 °F 16.0 °F 54% 29.76 in 10.0 mi WNW 8.1 mph 18.4 mph N/A   Clear
4:54 AM 30.0 °F 21.1 °F 15.1 °F 54% 29.79 in 10.0 mi WNW 10.4 mph - N/A   Clear
5:54 AM 28.9 °F 22.8 °F 14.0 °F 54% 29.82 in 10.0 mi West 5.8 mph - N/A   Clear
6:54 AM 28.0 °F 20.8 °F 12.9 °F 53% 29.84 in 10.0 mi NW 6.9 mph - N/A   Clear
7:54 AM 28.9 °F 21.1 °F 12.9 °F 51% 29.84 in 10.0 mi WNW 8.1 mph - N/A   Clear
8:54 AM 30.0 °F 21.7 °F 12.0 °F 47% 29.86 in 10.0 mi NW 9.2 mph - N/A   Clear
9:54 AM 32.0 °F 23.6 °F 12.0 °F 44% 29.86 in 10.0 mi NW 10.4 mph - N/A   Clear
10:54 AM 34.0 °F 26.0 °F 10.9 °F 38% 29.84 in 10.0 mi WNW 10.4 mph - N/A   Clear
11:54 AM 34.0 °F 26.0 °F 9.0 °F 35% 29.84 in 10.0 mi NW 10.4 mph - N/A   Clear
12:54 PM 35.1 °F 31.0 °F 9.0 °F 34% 29.83 in 10.0 mi West 4.6 mph 16.1 mph N/A   Mostly Cloudy
1:54 PM 36.0 °F 29.6 °F 9.0 °F 33% 29.81 in 10.0 mi SW 8.1 mph - N/A   Overcast
2:54 PM 39.0 °F 32.3 °F 9.0 °F 29% 29.81 in 10.0 mi West 10.4 mph - N/A   Overcast
3:54 PM 37.0 °F 33.3 °F 6.1 °F 28% 29.81 in 10.0 mi NNW 4.6 mph - N/A   Mostly Cloudy
4:54 PM 37.9 °F 35.5 °F 8.1 °F 29% 29.80 in 10.0 mi WNW 3.5 mph - N/A   Partly Cloudy
5:54 PM 37.0 °F 34.5 °F 8.1 °F 30% 29.80 in 10.0 mi Variable 3.5 mph - N/A   Clear
6:54 PM 36.0 °F 33.3 °F 9.0 °F 33% 29.81 in 10.0 mi NW 3.5 mph - N/A   Overcast
7:54 PM 36.0 °F 33.3 °F 8.1 °F 31% 29.83 in 10.0 mi NW 3.5 mph - N/A   Overcast
8:54 PM 34.0 °F 28.0 °F 12.0 °F 40% 29.85 in 10.0 mi NE 6.9 mph - N/A   Mostly Cloudy
9:54 PM 33.1 °F 26.1 °F 10.9 °F 40% 29.87 in 10.0 mi NE 8.1 mph - N/A   Overcast
10:54 PM 33.1 °F 30.0 °F 10.0 °F 38% 29.89 in 10.0 mi East 3.5 mph - N/A   Overcast
11:54 PM 28.9 °F 23.9 °F 10.0 °F 45% 29.91 in 10.0 mi NNE 4.6 mph - N/A   Scattered Clouds